Погода в Саркузе

Россия / Удмуртская Республика     56°22′02″N   51°42′13″E
темп.,
°C
ветер,
м/с
пор.,
м/с
влажн.,
%
обл.,
%
осадки,
мм/ч
давл.,
гПа
погр.,
м
24 мая, вт
вт2401:00+2юз2491100 0.0 100286
04:00+1ююз3796100 0.0 1003186
07:00+3юз487969 0.0 1004610
10:00+7юз476398 0.0 10041261
13:00+8юз6875100 0.4 10051226
16:00+11юз696298 1.4 10061782
19:00+9з257394 0.3 1007382
22:00+6вюв118998 0.8 100826
25 мая, ср
ср2501:00+6всв2293100 0.5 100736
04:00+6всв129773 3.8 100745
07:00+7сз229380 0.0 1007327
10:00+8сз337999 0.0 1007743
13:00+10сз2267100 0.1 1007925
16:00+9сз5573100 0.3 1007775
19:00+5зсз4893100 2.7 1008720
22:00+5зюз2391100 3.9 100859
26 мая, чт
чт2601:00+3зюз3895100 0.0 1009168
04:00+1зюз38955 0.0 1010180
07:00+3зюз5895100 0.0 1011572
10:00+7зюз598249 0.1 1011955
13:00+10зюз796592 1.0 10121665
16:00+11юз696085 1.6 10121556
19:00+9ююз597198 0.4 1012842
22:00+6ю4118695 0.4 1011301
27 мая, пт
пт2701:00+6ююз4128684 0.1 1010402
04:00+6ю41391100 1.1 1009531
07:00+7ю61494100 4.1 1008546
10:00+9ю61386100 4.9 1006702
13:00+10ююв81691100 2.1 10041126
16:00+11ю81493100 3.4 10031101
19:00+12ююз6128859 1.3 1003923
22:00+10ююз3896100 2.9 1004303
28 мая, сб
сб2801:00+10ю4998100 4.1 1004381
04:00+9ююз379987 4.2 1005287
07:00+9юз4797100 0.0 1007349
10:00+11ююз5790100 0.0 1008797
13:00+13ююз6982100 0.0 1009946
16:00+15ююз71173100 0.3 10081491
19:00+14ю71576100 0.3 1006784
22:00+13ююз71693100 2.6 1006955